Weather History for KLWT - October, 2013

Change the Weather History Date:

Thursday, October 3, 2013

  Actual Average Record
Temperature  
Mean Temperature 38 °F 48 °F  
Max Temperature 43 °F 62 °F 87 °F (1943)
Min Temperature 32 °F 35 °F 17 °F (1999)
Degree Days  
Heating Degree Days 27 17  
Month to date heating degree days 66 49  
Since 1 July heating degree days 329 526  
Cooling Degree Days 0 0  
Month to date cooling degree days 0 0  
Year to date cooling degree days 277 210  
Moisture  
Dew Point 32 °F    
Average Humidity 81    
Maximum Humidity 100    
Minimum Humidity 62    
Precipitation  
Precipitation 0.12 in 0.05 in 1.07 in (1940)
Month to date precipitation 0.12 0.14  
Year to date precipitation 20.53 14.49  
Snow  
Snow 0.00 in - - ()
Snow Depth 0.00 in    
Sea Level Pressure  
Sea Level Pressure 30.20 in    
Wind  
Wind Speed 7 mph (NNE)    
Max Wind Speed 20 mph    
Max Gust Speed 23 mph    
Visibility 7 miles    
Events Snow    
T = Trace of Precipitation, MM = Missing Value Source: NWS Daily Summary

Daily Weather History Graph

Daily Weather History Graph

Search for Another Location

Airport or City:

Trip Planner

Search our weather history database for the weather conditions in past years. The results will help you decide how hot, cold, wet, or windy it might be!

Date:

Astronomy

Oct. 03, 2013 Rise Set
Actual Time 7:19 AM MDT 6:52 PM MDT
Civil Twilight 6:49 AM MDT 7:23 PM MDT
Nautical Twilight 6:14 AM MDT 7:58 PM MDT
Astronomical Twilight 5:38 AM MDT 8:34 PM MDT
Moon 5:53 AM MDT (10/3) 6:04 PM MDT (10/3)
Length of Visible Light 12h 33m
Length of Day
11h 33m
Waning Crescent, 2% of the Moon is Illuminated
Oct 3
Waning Crescent
Oct 4
New
Oct 11
First Quarter
Oct 18
Full
Oct 26
Last Quarter

Hourly Weather History & Observations

Time (MDT) Temp. Windchill Dew Point Humidity Pressure Visibility Wind Dir Wind Speed Gust Speed Precip Events Conditions
12:54 AM 43.0 °F 36.0 °F 30.0 °F 60% 30.01 in 10.0 mi East 13.8 mph - N/A   Overcast
1:54 AM 42.1 °F 35.2 °F 32.0 °F 67% 30.02 in 10.0 mi East 12.7 mph - N/A   Overcast
2:54 AM 39.0 °F 32.8 °F 32.0 °F 76% 30.03 in 10.0 mi East 9.2 mph - N/A   Overcast
3:54 AM 39.0 °F 32.8 °F 30.9 °F 73% 30.03 in 10.0 mi NE 9.2 mph - N/A   Overcast
4:54 AM 37.9 °F 33.5 °F 32.0 °F 79% 30.05 in 10.0 mi ENE 5.8 mph - N/A   Overcast
5:54 AM 37.0 °F 33.3 °F 32.0 °F 82% 30.05 in 10.0 mi ENE 4.6 mph - 0.00 in   Overcast
6:25 AM 37.4 °F 32.8 °F 33.8 °F 87% 30.04 in 10.0 mi SE 5.8 mph - N/A   Overcast
6:54 AM 37.0 °F - 32.0 °F 82% 30.08 in 10.0 mi Calm Calm - N/A   Overcast
7:54 AM 35.1 °F 31.0 °F 30.9 °F 85% 30.12 in 10.0 mi NNE 4.6 mph - N/A   Overcast
8:49 AM 33.8 °F 29.6 °F 30.2 °F 87% 30.11 in 1.8 mi ESE 4.6 mph - 0.00 in Snow Light Snow
8:54 AM 33.1 °F 28.7 °F 30.9 °F 92% 30.16 in 1.5 mi ESE 4.6 mph - 0.00 in Snow Light Snow
9:17 AM 33.8 °F 28.6 °F 32.0 °F 93% 30.12 in 0.8 mi ESE 5.8 mph - 0.01 in Snow Light Snow
9:52 AM 32.0 °F 27.5 °F 32.0 °F 100% 30.13 in 1.0 mi NNE 4.6 mph - 0.04 in Snow Light Snow
9:54 AM 32.0 °F 26.4 °F 32.0 °F 100% 30.19 in 1.0 mi NNE 5.8 mph - 0.04 in Snow Light Snow
10:54 AM 32.0 °F 23.6 °F 32.0 °F 100% 30.20 in 0.8 mi North 10.4 mph - 0.02 in Snow Light Snow
11:16 AM 32.0 °F 24.2 °F 32.0 °F 100% 30.15 in 1.0 mi NNE 9.2 mph - 0.02 in Snow Light Snow
11:50 AM 33.8 °F 24.3 °F 32.0 °F 93% 30.15 in 2.5 mi North 13.8 mph - 0.03 in Snow Light Snow
11:54 AM 33.1 °F 23.0 °F 32.0 °F 96% 30.21 in 3.0 mi North 15.0 mph - 0.03 in Snow Light Snow
12:54 PM 34.0 °F 24.6 °F 32.0 °F 92% 30.22 in 10.0 mi North 13.8 mph 23.0 mph 0.00 in   Overcast
1:54 PM 34.0 °F 25.0 °F 32.0 °F 92% 30.24 in 10.0 mi North 12.7 mph - N/A   Overcast
2:25 PM 33.8 °F 24.8 °F 32.0 °F 93% 30.20 in 10.0 mi North 12.7 mph - N/A   Overcast
2:54 PM 33.1 °F 24.9 °F 30.9 °F 92% 30.28 in 10.0 mi North 10.4 mph 19.6 mph N/A   Overcast
3:54 PM 34.0 °F 25.0 °F 32.0 °F 92% 30.28 in 10.0 mi North 12.7 mph - N/A   Overcast
4:54 PM 36.0 °F 28.5 °F 33.1 °F 89% 30.31 in 10.0 mi North 10.4 mph - N/A   Overcast
5:08 PM 35.6 °F 28.6 °F 32.0 °F 87% 30.25 in 10.0 mi North 9.2 mph 16.1 mph N/A   Overcast
5:54 PM 35.1 °F 26.9 °F 30.0 °F 82% 30.33 in 10.0 mi North 11.5 mph - N/A   Overcast
6:54 PM 35.1 °F 30.1 °F 30.9 °F 85% 30.36 in 10.0 mi North 5.8 mph - N/A   Overcast
7:27 PM 33.8 °F 28.6 °F 30.2 °F 87% 30.30 in 10.0 mi North 5.8 mph - N/A   Overcast
7:54 PM 34.0 °F 29.8 °F 30.9 °F 89% 30.39 in 10.0 mi North 4.6 mph - N/A   Overcast
8:54 PM 34.0 °F 28.0 °F 30.0 °F 85% 30.40 in 10.0 mi NNE 6.9 mph - N/A   Overcast
10:54 PM 34.0 °F 31.0 °F 33.1 °F 96% 30.45 in 6.0 mi West 3.5 mph - 0.00 in Snow Light Snow
11:34 PM 33.8 °F 30.8 °F 33.8 °F 100% 30.35 in 5.0 mi West 3.5 mph - 0.01 in Snow Light Snow
11:54 PM 33.1 °F 30.0 °F 33.1 °F 100% 30.44 in 6.0 mi NW 3.5 mph - 0.01 in Snow Light Snow